| time (UTC) | temp F | wind direction | speed MPH | gust MPH | rain 1hr in | rain 24hr in | rain mn in | humidity % | barometer mb |
| 20260506204545 | 46 | 98 | 6.0 | 11.0 | 0.00 | 0.00 | 0.00 | 55 | 1010.8 |
| 20260506203139 | 46 | 108 | 3.0 | 10.0 | 0.00 | 0.00 | 0.00 | 54 | 1010.8 |
| 20260506201541 | 46 | 69 | 3.0 | 9.0 | 0.00 | 0.00 | 0.00 | 51 | 1010.9 |
| 20260506200139 | 46 | 103 | 5.0 | 10.0 | 0.00 | 0.00 | 0.00 | 51 | 1010.8 |
| 20260506194541 | 46 | 95 | 3.0 | 8.0 | 0.00 | 0.00 | 0.00 | 48 | 1010.7 |
| 20260506193138 | 46 | 57 | 1.0 | 4.0 | 0.00 | 0.00 | 0.00 | 49 | 1010.6 |
| 20260506191543 | 49 | 33 | 0.0 | 2.0 | 0.00 | 0.00 | 0.00 | 46 | 1010.5 |
| 20260506190137 | 49 | 125 | 0.0 | 2.0 | 0.00 | 0.00 | 0.00 | 46 | 1010.4 |
| 20260506184546 | 52 | 13 | 0.0 | 3.0 | 0.00 | 0.00 | 0.00 | 41 | 1010.4 |
| 20260506183044 | 52 | 13 | 1.0 | 3.0 | 0.00 | 0.00 | 0.00 | 39 | 1010.3 |
| 20260506181548 | 53 | 14 | 2.0 | 5.0 | 0.00 | 0.00 | 0.00 | 39 | 1010.2 |
| 20260506180038 | 53 | 345 | 2.0 | 6.0 | 0.00 | 0.00 | 0.00 | 39 | 1010.2 |
| 20260506174539 | 53 | 325 | 4.0 | 7.0 | 0.00 | 0.00 | 0.00 | 38 | 1010.1 |
| 20260506173043 | 54 | 334 | 4.0 | 10.0 | 0.00 | 0.00 | 0.00 | 35 | 1010.1 |
| 20260506171541 | 55 | 321 | 6.0 | 10.0 | 0.00 | 0.00 | 0.00 | 33 | 1010.0 |
| 20260506170139 | 56 | 360 | 5.0 | 8.0 | 0.00 | 0.00 | 0.00 | 34 | 1010.0 |
| 20260506164555 | 56 | 342 | 5.0 | 12.0 | 0.00 | 0.00 | 0.00 | 33 | 1010.0 |
| 20260506163042 | 55 | 330 | 7.0 | 13.0 | 0.00 | 0.00 | 0.00 | 32 | 1009.9 |
| 20260506161546 | 56 | 292 | 7.0 | 13.0 | 0.00 | 0.00 | 0.00 | 31 | 1009.9 |
| 20260506160038 | 57 | 307 | 6.0 | 9.0 | 0.00 | 0.00 | 0.00 | 29 | 1009.8 |
| 20260506154543 | 57 | 119 | 2.0 | 4.0 | 0.00 | 0.00 | 0.00 | 27 | 1010.0 |
| 20260506153039 | 56 | 166 | 1.0 | 8.0 | 0.00 | 0.00 | 0.00 | 28 | 1009.9 |
| 20260506151541 | 57 | 113 | 5.0 | 10.0 | 0.00 | 0.00 | 0.00 | 26 | 1010.0 |
| 20260506150045 | 56 | 86 | 5.0 | 13.0 | 0.00 | 0.00 | 0.00 | 25 | 1010.1 |
| 20260506144540 | 57 | 90 | 3.0 | 8.0 | 0.00 | 0.00 | 0.00 | 25 | 1010.1 |
| 20260506143138 | 56 | 315 | 5.0 | 11.0 | 0.00 | 0.00 | 0.00 | 25 | 1010.3 |
| 20260506141637 | 57 | 174 | 4.0 | 8.0 | 0.00 | 0.00 | 0.00 | 25 | 1010.4 |
| 20260506140138 | 57 | 262 | 4.0 | 11.0 | 0.00 | 0.00 | 0.00 | 25 | 1010.5 |
| 20260506134637 | 57 | 67 | 1.0 | 11.0 | 0.00 | 0.00 | 0.00 | 25 | 1010.5 |
| 20260506133052 | 56 | 271 | 3.0 | 8.0 | 0.00 | 0.00 | 0.00 | 25 | 1010.7 |
| 20260506131542 | 56 | 169 | 7.0 | 12.0 | 0.00 | 0.00 | 0.00 | 25 | 1010.9 |
| 20260506130040 | 56 | 290 | 1.0 | 8.0 | 0.00 | 0.00 | 0.00 | 26 | 1010.9 |
| 20260506124542 | 55 | 110 | 3.0 | 9.0 | 0.00 | 0.00 | 0.00 | 25 | 1011.1 |
| 20260506123137 | 55 | 134 | 5.0 | 11.0 | 0.00 | 0.00 | 0.00 | 25 | 1011.2 |
| 20260506121540 | 55 | 231 | 0.0 | 13.0 | 0.00 | 0.00 | 0.00 | 27 | 1011.3 |
| 20260506120056 | 54 | 150 | 5.0 | 11.0 | 0.00 | 0.00 | 0.00 | 25 | 1011.4 |
| 20260506114544 | 54 | 202 | 6.0 | 12.0 | 0.00 | 0.00 | 0.00 | 25 | 1011.4 |
| 20260506113038 | 54 | 147 | 5.0 | 13.0 | 0.00 | 0.00 | 0.00 | 26 | 1011.7 |
| 20260506111544 | 54 | 82 | 6.0 | 13.0 | 0.00 | 0.00 | 0.00 | 27 | 1011.6 |
| 20260506110039 | 53 | 192 | 3.0 | 12.0 | 0.00 | 0.00 | 0.00 | 26 | 1011.6 |
| 20260506104553 | 54 | 142 | 9.0 | 15.0 | 0.00 | 0.00 | 0.00 | 27 | 1011.8 |
| 20260506103044 | 53 | 71 | 7.0 | 13.0 | 0.00 | 0.00 | 0.00 | 27 | 1012.0 |
| 20260506101540 | 53 | 188 | 4.0 | 15.0 | 0.00 | 0.00 | 0.00 | 30 | 1012.1 |
| 20260506100138 | 52 | 96 | 6.0 | 12.0 | 0.00 | 0.00 | 0.00 | 29 | 1012.2 |
| 20260506094545 | 52 | 99 | 7.0 | 12.0 | 0.00 | 0.00 | 0.00 | 28 | 1012.3 |
| 20260506093037 | 52 | 228 | 4.0 | 13.0 | 0.00 | 0.00 | 0.00 | 29 | 1012.3 |
| 20260506091539 | 52 | 92 | 4.0 | 9.0 | 0.00 | 0.00 | 0.00 | 29 | 1012.4 |
| 20260506090041 | 52 | 184 | 7.0 | 13.0 | 0.00 | 0.00 | 0.00 | 33 | 1012.4 |
| 20260506084612 | 51 | 200 | 4.0 | 9.0 | 0.00 | 0.00 | 0.00 | 37 | 1012.4 |
| 20260506083137 | 51 | 174 | 7.0 | 13.0 | 0.00 | 0.00 | 0.00 | 37 | 1012.4 |
| 20260506081552 | 50 | 98 | 2.0 | 9.0 | 0.00 | 0.00 | 0.00 | 34 | 1012.5 |
| 20260506080137 | 50 | 165 | 6.0 | 11.0 | 0.00 | 0.00 | 0.00 | 39 | 1012.6 |
| 20260506073037 | 49 | 149 | 5.0 | 11.0 | 0.00 | 0.00 | 0.00 | 45 | 1012.6 |
| 20260506071541 | 48 | 176 | 5.0 | 8.0 | 0.00 | 0.00 | 0.00 | 47 | 1012.4 |
| 20260506061543 | 42 | 190 | 3.0 | 6.0 | 0.00 | 0.00 | 0.00 | 66 | 1012.6 |
| 20260506060141 | 40 | 140 | 3.0 | 5.0 | 0.00 | 0.00 | 0.00 | 68 | 1012.5 |
| 20260506050138 | 34 | 163 | 0.0 | 2.0 | 0.00 | 0.00 | 0.00 | 85 | 1012.5 |
| 20260506044540 | 32 | 124 | 0.0 | 0.0 | 0.00 | 0.00 | 0.00 | 88 | 1012.4 |
| 20260506043044 | 30 | 125 | 0.0 | 2.0 | 0.00 | 0.00 | 0.00 | 88 | 1012.5 |
| 20260506041548 | 29 | 111 | 2.0 | 4.0 | 0.00 | 0.00 | 0.00 | 88 | 1012.4 |
| 20260506040039 | 28 | 119 | 2.0 | 3.0 | 0.00 | 0.00 | 0.00 | 89 | 1012.2 |
| 20260506034541 | 27 | 147 | 0.0 | 2.0 | 0.00 | 0.00 | 0.00 | 87 | 1012.2 |
| 20260506033040 | 27 | 132 | 0.0 | 1.0 | 0.00 | 0.00 | 0.00 | 87 | 1012.1 |
| 20260506031544 | 27 | 130 | 2.0 | 4.0 | 0.00 | 0.00 | 0.00 | 87 | 1012.0 |
| 20260506030040 | 26 | 182 | 2.0 | 6.0 | 0.00 | 0.00 | 0.00 | 84 | 1011.9 |
| 20260506024542 | 27 | 80 | 0.0 | 0.0 | 0.00 | 0.00 | 0.00 | 82 | 1011.8 |
| 20260506023053 | 28 | 80 | 0.0 | 1.0 | 0.00 | 0.00 | 0.00 | 82 | 1011.9 |
| 20260506021606 | 28 | 80 | 0.0 | 0.0 | 0.00 | 0.00 | 0.00 | 82 | 1011.8 |
| 20260506020136 | 29 | 80 | 0.0 | 2.0 | 0.00 | 0.00 | 0.00 | 83 | 1011.8 |
| 20260506014537 | 28 | 94 | 0.0 | 0.0 | 0.00 | 0.00 | 0.00 | 82 | 1011.7 |
| 20260506013039 | 29 | 102 | 0.0 | 2.0 | 0.00 | 0.00 | 0.00 | 81 | 1011.7 |
| 20260506011543 | 29 | 96 | 0.0 | 0.0 | 0.00 | 0.00 | 0.00 | 81 | 1011.6 |
| 20260506010137 | 29 | 96 | 0.0 | 0.0 | 0.00 | 0.00 | 0.00 | 80 | 1011.5 |
| 20260506004638 | 29 | 96 | 0.0 | 0.0 | 0.00 | 0.00 | 0.00 | 79 | 1011.4 |
| 20260506003038 | 29 | 88 | 0.0 | 0.0 | 0.00 | 0.00 | 0.00 | 78 | 1011.5 |
| 20260506001541 | 31 | 87 | 0.0 | 0.0 | 0.00 | 0.00 | 0.00 | 72 | 1011.5 |
| 20260506000042 | 32 | 87 | 0.0 | 0.0 | 0.00 | 0.00 | 0.00 | 72 | 1011.4 |
| 20260505234542 | 32 | 87 | 0.0 | 5.0 | 0.00 | 0.00 | 0.00 | 71 | 1011.4 |
| 20260505233038 | 32 | 97 | 2.0 | 3.0 | 0.00 | 0.00 | 0.00 | 72 | 1011.4 |
| 20260505231554 | 33 | 94 | 0.0 | 3.0 | 0.00 | 0.00 | 0.00 | 69 | 1011.4 |
| 20260505230136 | 33 | 93 | 2.0 | 5.0 | 0.00 | 0.00 | 0.00 | 69 | 1011.4 |
| 20260505224539 | 34 | 99 | 0.0 | 2.0 | 0.00 | 0.00 | 0.00 | 69 | 1011.4 |
| 20260505223036 | 34 | 94 | 0.0 | 2.0 | 0.00 | 0.00 | 0.00 | 67 | 1011.4 |
| 20260505221537 | 34 | 94 | 1.0 | 2.0 | 0.00 | 0.00 | 0.00 | 67 | 1011.3 |
| 20260505220038 | 35 | 71 | 0.0 | 1.0 | 0.00 | 0.00 | 0.00 | 68 | 1011.2 |
| 20260505214642 | 35 | 71 | 0.0 | 0.0 | 0.00 | 0.00 | 0.00 | 67 | 1011.2 |
| 20260505213137 | 36 | 71 | 0.0 | 0.0 | 0.00 | 0.00 | 0.00 | 68 | 1011.2 |
| 20260505211537 | 37 | 71 | 0.0 | 1.0 | 0.00 | 0.00 | 0.00 | 67 | 1011.0 |
| 20260505210040 | 37 | 74 | 0.0 | 2.0 | 0.00 | 0.00 | 0.00 | 66 | 1010.9 |